TimePST,TemperatureF,Dew PointF,Humidity,Sea Level PressureIn,VisibilityMPH,Wind Direction,Wind SpeedMPH,Gust SpeedMPH,PrecipitationIn,Events,Conditions,WindDirDegrees,DateUTC
12:11 AM,44.6,39.2,81,30.03,2.0,SSW,12.7,19.6,0.04,Rain,Light Rain,210,2013-02-22 08:11:00
12:33 AM,42.8,37.4,81,30.02,1.8,South,8.1,16.1,0.06,Rain,Light Rain,190,2013-02-22 08:33:00
12:53 AM,43.0,37.9,82,30.03,2.5,South,4.6,-,0.07,Rain,Light Rain,190,2013-02-22 08:53:00
1:24 AM,42.8,37.4,81,30.00,1.8,SSE,5.8,-,0.02,Rain,Light Rain,160,2013-02-22 09:24:00
1:37 AM,42.8,39.2,87,30.00,1.5,Variable,5.8,-,0.04,Rain,Light Rain,0,2013-02-22 09:37:00
1:53 AM,43.0,39.0,86,30.00,1.2,SSE,6.9,-,0.05,Rain,Light Rain,150,2013-02-22 09:53:00
2:06 AM,44.6,39.2,81,29.98,1.5,South,5.8,-,0.02,Rain,Light Rain,170,2013-02-22 10:06:00
2:24 AM,44.6,39.2,81,29.97,1.2,South,6.9,-,0.05,Rain,Light Rain,170,2013-02-22 10:24:00
2:34 AM,44.6,39.2,81,29.95,1.8,SSE,6.9,-,0.06,Rain,Light Rain,160,2013-02-22 10:34:00
2:53 AM,44.1,39.9,85,29.93,1.8,South,5.8,17.3,0.07,Rain,Light Rain,180,2013-02-22 10:53:00
3:06 AM,44.6,39.2,81,29.93,1.5,SSE,10.4,17.3,0.01,Rain,Light Rain,160,2013-02-22 11:06:00
3:08 AM,44.6,39.2,81,29.93,1.2,South,9.2,17.3,0.01,Rain,Light Rain,190,2013-02-22 11:08:00
3:37 AM,44.6,41.0,87,29.91,0.8,Variable,6.9,19.6,0.03,Rain,Light Rain,0,2013-02-22 11:37:00
3:53 AM,44.1,41.0,89,29.89,0.8,SSE,8.1,-,0.07,Rain,Rain,160,2013-02-22 11:53:00
4:10 AM,44.6,41.0,87,29.87,1.0,SSE,9.2,18.4,0.04,Rain,Light Rain,160,2013-02-22 12:10:00
4:53 AM,45.0,41.0,86,29.84,1.2,South,10.4,23.0,0.15,Rain,Rain,170,2013-02-22 12:53:00
5:25 AM,46.4,42.8,87,29.81,1.5,South,16.1,24.2,0.12,Rain,Rain,190,2013-02-22 13:25:00
5:53 AM,46.9,43.0,86,29.80,1.5,SSW,15.0,28.8,0.22,Rain,Rain,200,2013-02-22 13:53:00
6:18 AM,46.4,42.8,87,29.81,1.2,South,13.8,26.5,0.12,Rain,Heavy Rain,180,2013-02-22 14:18:00
6:32 AM,46.4,42.8,87,29.80,1.2,South,15.0,26.5,0.21,Rain,Rain,190,2013-02-22 14:32:00
6:46 AM,46.4,42.8,87,29.80,1.2,South,15.0,29.9,0.29,Rain,Rain,180,2013-02-22 14:46:00
6:53 AM,46.9,43.0,86,29.80,1.2,South,11.5,27.6,0.33,Rain,Rain,190,2013-02-22 14:53:00
7:53 AM,46.9,44.1,90,29.75,1.0,South,13.8,31.1,0.36,Rain,Rain,190,2013-02-22 15:53:00
8:49 AM,46.4,42.8,87,29.71,0.8,South,13.8,25.3,0.36,Rain,Heavy Rain,180,2013-02-22 16:49:00
8:53 AM,46.4,42.8,87,29.72,0.5,South,12.7,25.3,N/A,Fog-Rain,Heavy Rain,170,2013-02-22 16:53:00
9:07 AM,46.4,44.6,93,29.72,-9999.0,SSW,10.4,24.2,0.10,Rain,Heavy Rain,200,2013-02-22 17:07:00
9:17 AM,46.4,44.6,93,29.72,0.5,South,10.4,20.7,0.16,Fog-Rain,Rain,190,2013-02-22 17:17:00
9:53 AM,48.0,45.0,89,29.71,0.8,SW,12.7,19.6,0.38,Rain,Heavy Rain,220,2013-02-22 17:53:00
10:19 AM,48.2,44.6,87,29.71,1.0,West,11.5,23.0,0.11,Rain,Rain,280,2013-02-22 18:19:00
10:28 AM,46.4,42.8,87,29.71,1.0,West,8.1,20.7,0.13,Rain,Rain,280,2013-02-22 18:28:00
10:40 AM,46.4,42.8,87,29.71,0.8,West,6.9,-,0.16,Rain,Rain,280,2013-02-22 18:40:00
10:51 AM,46.4,42.8,87,29.71,1.2,West,8.1,-,0.18,Rain,Light Rain,260,2013-02-22 18:51:00
10:53 AM,46.9,43.0,86,29.71,1.8,West,8.1,-,0.18,Rain,Light Rain,260,2013-02-22 18:53:00
10:56 AM,46.4,42.8,87,29.71,2.5,West,5.8,-,0.00,Rain,Light Rain,260,2013-02-22 18:56:00
11:00 AM,46.4,42.8,87,29.71,1.2,West,5.8,-,0.01,Rain,Light Rain,270,2013-02-22 19:00:00
11:09 AM,46.4,42.8,87,29.71,0.8,West,6.9,-,0.03,Rain,Light Rain,270,2013-02-22 19:09:00
11:16 AM,46.4,42.8,87,29.71,0.8,WSW,8.1,-,0.04,Rain,Light Rain,240,2013-02-22 19:16:00
11:39 AM,48.2,42.8,82,29.72,1.5,WSW,12.7,-,0.09,Rain,Light Rain,250,2013-02-22 19:39:00
11:46 AM,48.2,42.8,82,29.72,2.5,SW,10.4,18.4,0.09,Rain,Light Rain,230,2013-02-22 19:46:00
11:53 AM,48.0,44.1,86,29.72,2.5,WSW,11.5,-,0.09,,Mostly Cloudy,240,2013-02-22 19:53:00
12:53 PM,48.0,42.1,80,29.73,2.5,WSW,15.0,-,N/A,,Haze,240,2013-02-22 20:53:00
1:46 PM,46.4,37.4,71,29.72,1.8,West,13.8,23.0,0.00,Rain,Light Rain,270,2013-02-22 21:46:00
1:53 PM,46.9,39.0,74,29.73,2.0,West,13.8,-,0.00,Rain,Light Rain,270,2013-02-22 21:53:00
2:38 PM,46.4,37.4,71,29.74,3.0,West,13.8,20.7,0.00,,Haze,280,2013-02-22 22:38:00
2:53 PM,46.0,37.0,71,29.76,3.0,West,17.3,27.6,0.00,,Haze,270,2013-02-22 22:53:00
3:53 PM,44.1,34.0,68,29.77,5.0,WSW,11.5,23.0,N/A,,Haze,250,2013-02-22 23:53:00
4:34 PM,42.8,35.6,76,29.78,1.8,WNW,15.0,20.7,0.00,Rain,Light Rain,290,2013-02-23 00:34:00
4:43 PM,39.2,35.6,87,29.78,1.0,West,11.5,20.7,0.03,Rain,Light Rain,280,2013-02-23 00:43:00
4:50 PM,39.2,35.6,87,29.79,2.0,West,10.4,-,0.03,Rain,Light Rain,270,2013-02-23 00:50:00
4:53 PM,41.0,36.0,82,29.79,3.0,West,8.1,-,0.03,Rain,Light Rain,270,2013-02-23 00:53:00
5:30 PM,39.2,35.6,87,29.78,3.0,Calm,Calm,-,0.00,,Mostly Cloudy,0,2013-02-23 01:30:00
5:35 PM,39.2,35.6,87,29.79,1.8,SSW,3.5,-,0.00,Rain,Light Rain,210,2013-02-23 01:35:00
5:38 PM,39.2,35.6,87,29.79,0.8,Calm,Calm,-,0.02,Rain,Heavy Rain,0,2013-02-23 01:38:00
5:46 PM,39.2,33.8,81,29.80,1.0,WNW,15.0,21.9,0.06,Rain,Rain,290,2013-02-23 01:46:00
5:50 PM,39.2,33.8,81,29.79,2.0,West,15.0,21.9,0.08,Rain,Light Rain,280,2013-02-23 01:50:00
5:53 PM,39.9,34.0,79,29.80,2.5,WNW,12.7,21.9,0.08,Rain,Light Rain,290,2013-02-23 01:53:00
6:00 PM,39.2,33.8,81,29.79,5.0,West,9.2,18.4,0.00,Rain,Light Rain,280,2013-02-23 02:00:00
6:53 PM,39.0,34.0,82,29.81,4.0,West,3.5,-,0.00,,Haze,270,2013-02-23 02:53:00
7:11 PM,39.2,33.8,81,29.81,2.0,West,15.0,25.3,0.02,Rain,Heavy Rain,280,2013-02-23 03:11:00
7:25 PM,39.2,33.8,81,29.81,4.0,WSW,6.9,-,0.03,Rain,Light Rain,240,2013-02-23 03:25:00
7:53 PM,39.9,35.1,83,29.83,4.0,West,9.2,20.7,0.03,,Haze,280,2013-02-23 03:53:00
8:53 PM,41.0,34.0,76,29.86,4.0,West,13.8,24.2,N/A,,Haze,280,2013-02-23 04:53:00
9:53 PM,43.0,35.1,74,29.87,4.0,West,13.8,19.6,N/A,,Haze,260,2013-02-23 05:53:00
10:53 PM,43.0,35.1,74,29.89,4.0,WSW,15.0,-,0.00,Rain,Light Rain,250,2013-02-23 06:53:00
11:14 PM,42.8,35.6,76,29.90,3.0,WNW,10.4,27.6,0.01,Rain,Light Rain,290,2013-02-23 07:14:00
11:53 PM,43.0,37.0,80,29.91,6.0,West,8.1,-,0.01,,Haze,280,2013-02-23 07:53:00